When you browse on this site, cookies collect data to enhance your experience and personalize the content and advertising you see.
Visit our Privacy Policy to learn more. By continuing to use the site, you agree to this use of cookies and data.
  • In Hungary
  • List of Countries
  • For 7 days
  • Water Temperature
  • Weather Map
  • News
  • Weather Widgets
  • user-avatar
    Login

    Hourly Weather Shahtarsk

    Today, 18 November, Monday

    Time Temperature Precipitation Wind Pressure Humidity
    00:00 +4°C° 0 mm 4 mps 750 mmHg 82%
    01:00 +3°C° 0 mm 4 mps 750 mmHg 84%
    02:00 +3°C° 0 mm 4 mps 749 mmHg 86%
    03:00 +1°C° 0 mm 4 mps 749 mmHg 88%
    04:00 +1°C° 0 mm 4 mps 749 mmHg 89%
    05:00 +1°C° 0 mm 4 mps 749 mmHg 91%
    06:00 +1°C° 0 mm 4 mps 749 mmHg 92%
    07:00 +1°C° 0 mm 4 mps 749 mmHg 92%
    08:00 +1°C° 0 mm 4 mps 749 mmHg 92%
    09:00 +1°C° 0 mm 5 mps 749 mmHg 91%
    10:00 +2°C° 0 mm 5 mps 749 mmHg 85%
    11:00 +3°C° 0 mm 5 mps 749 mmHg 79%
    12:00 +5°C° 0 mm 5 mps 749 mmHg 73%
    13:00 +6°C° 0 mm 4 mps 748 mmHg 69%
    14:00 +7°C° 0 mm 4 mps 748 mmHg 65%
    15:00 +8°C° 0 mm 4 mps 748 mmHg 61%
    16:00 +7°C° 0 mm 4 mps 748 mmHg 66%
    17:00 +7°C° 0 mm 3 mps 748 mmHg 72%
    18:00 +5°C° 0 mm 3 mps 748 mmHg 77%
    19:00 +4°C° 0 mm 3 mps 748 mmHg 79%
    20:00 +4°C° 0 mm 3 mps 748 mmHg 81%
    21:00 +4°C° 0 mm 3 mps 748 mmHg 83%
    22:00 +3°C° 0 mm 3 mps 748 mmHg 84%
    23:00 +3°C° 0 mm 3 mps 748 mmHg 86%

    Tomorrow, 19 November, Tuesday

    Time Temperature Precipitation Wind Pressure Humidity
    00:00 +4°C° 0 mm 2 mps 748 mmHg 87%
    01:00 +3°C° 0 mm 2 mps 748 mmHg 88%
    02:00 +3°C° 0 mm 2 mps 748 mmHg 88%
    03:00 +3°C° 0 mm 2 mps 748 mmHg 89%
    04:00 +3°C° 0 mm 2 mps 748 mmHg 89%
    05:00 +3°C° 0 mm 2 mps 748 mmHg 89%
    06:00 +2°C° 0 mm 2 mps 748 mmHg 89%
    07:00 +3°C° 0 mm 2 mps 748 mmHg 88%
    08:00 +3°C° 0 mm 2 mps 749 mmHg 86%
    09:00 +4°C° 0 mm 2 mps 749 mmHg 85%
    10:00 +5°C° 0 mm 2 mps 749 mmHg 78%
    11:00 +7°C° 0 mm 3 mps 749 mmHg 71%
    12:00 +8°C° 0 mm 3 mps 749 mmHg 63%
    13:00 +9°C° 0 mm 3 mps 749 mmHg 60%
    14:00 +10°C° 0 mm 2 mps 749 mmHg 57%
    15:00 +10°C° 0 mm 2 mps 749 mmHg 54%
    16:00 +9°C° 0 mm 2 mps 749 mmHg 60%
    17:00 +7°C° 0 mm 2 mps 748 mmHg 66%
    18:00 +6°C° 0 mm 2 mps 748 mmHg 73%
    19:00 +6°C° 0 mm 2 mps 748 mmHg 75%
    20:00 +5°C° 0 mm 2 mps 749 mmHg 78%
    21:00 +3°C° 0 mm 3 mps 749 mmHg 81%
    22:00 +3°C° 0 mm 3 mps 748 mmHg 83%
    23:00 +4°C° 0 mm 2 mps 748 mmHg 84%

    Day after tomorrow, 20 November, Wednesday

    Time Temperature Precipitation Wind Pressure Humidity
    00:00 +3°C° 0 mm 2 mps 748 mmHg 85%
    01:00 +3°C° 0 mm 2 mps 748 mmHg 85%
    02:00 +3°C° 0 mm 2 mps 748 mmHg 86%
    03:00 +1°C° 0 mm 3 mps 749 mmHg 86%
    04:00 +1°C° 0 mm 3 mps 749 mmHg 86%
    05:00 +1°C° 0 mm 3 mps 748 mmHg 86%
    06:00 0°C° 0 mm 3 mps 748 mmHg 86%
    07:00 +1°C° 0 mm 3 mps 749 mmHg 81%
    08:00 0°C° 0 mm 4 mps 749 mmHg 76%
    09:00 0°C° 0 mm 4 mps 749 mmHg 70%
    10:00 +1°C° 0 mm 5 mps 749 mmHg 62%
    11:00 +2°C° 0 mm 5 mps 749 mmHg 54%
    12:00 +5°C° 0 mm 5 mps 749 mmHg 46%
    13:00 +5°C° 0 mm 5 mps 749 mmHg 47%
    14:00 +4°C° 0 mm 6 mps 749 mmHg 48%
    15:00 +4°C° 0 mm 6 mps 749 mmHg 49%
    16:00 +4°C° 0 mm 6 mps 750 mmHg 58%
    17:00 +3°C° 0 mm 6 mps 750 mmHg 67%
    18:00 +2°C° 0 mm 6 mps 750 mmHg 75%
    19:00 +2°C° 0 mm 7 mps 751 mmHg 77%
    20:00 +2°C° 0 mm 7 mps 751 mmHg 78%
    21:00 +2°C° 0 mm 7 mps 752 mmHg 80%
    22:00 0°C° 0 mm 8 mps 752 mmHg 76%
    23:00 -1°C° 0 mm 8 mps 752 mmHg 72%

    21 November, Thursday

    Time Temperature Precipitation Wind Pressure Humidity
    00:00 -2°C° 0 mm 8 mps 752 mmHg 68%
    01:00 -4°C° 0 mm 8 mps 752 mmHg 67%
    02:00 -5°C° 0 mm 8 mps 753 mmHg 65%
    03:00 -7°C° 0 mm 8 mps 753 mmHg 64%
    04:00 -8°C° 0 mm 8 mps 753 mmHg 63%
    05:00 -8°C° 0 mm 8 mps 753 mmHg 62%
    06:00 -9°C° 0 mm 7 mps 753 mmHg 61%
    07:00 -11°C° 0 mm 8 mps 754 mmHg 60%
    08:00 -11°C° 0 mm 8 mps 754 mmHg 58%
    09:00 -11°C° 0 mm 8 mps 754 mmHg 56%
    10:00 -10°C° 0 mm 8 mps 754 mmHg 52%
    11:00 -8°C° 0 mm 8 mps 754 mmHg 48%
    12:00 -8°C° 0 mm 9 mps 755 mmHg 43%
    13:00 -8°C° 0 mm 9 mps 754 mmHg 43%
    14:00 -8°C° 0 mm 9 mps 754 mmHg 42%
    15:00 -6°C° 0 mm 9 mps 754 mmHg 42%
    16:00 -7°C° 0 mm 8 mps 754 mmHg 43%
    17:00 -8°C° 0 mm 8 mps 754 mmHg 44%
    18:00 -10°C° 0 mm 8 mps 754 mmHg 45%
    19:00 -10°C° 0 mm 8 mps 754 mmHg 45%
    20:00 -11°C° 0 mm 8 mps 755 mmHg 44%
    21:00 -11°C° 0 mm 8 mps 755 mmHg 44%
    22:00 -11°C° 0 mm 8 mps 755 mmHg 43%
    23:00 -11°C° 0 mm 8 mps 755 mmHg 43%

    22 November, Friday

    Time Temperature Precipitation Wind Pressure Humidity
    00:00 -12°C° 0 mm 8 mps 755 mmHg 43%
    01:00 -12°C° 0 mm 8 mps 755 mmHg 43%
    02:00 -12°C° 0 mm 8 mps 755 mmHg 43%
    03:00 -12°C° 0 mm 8 mps 755 mmHg 42%
    04:00 -12°C° 0 mm 8 mps 754 mmHg 43%
    05:00 -12°C° 0 mm 8 mps 754 mmHg 44%
    06:00 -12°C° 0 mm 8 mps 754 mmHg 45%
    07:00 -12°C° 0 mm 9 mps 754 mmHg 45%
    08:00 -12°C° 0 mm 9 mps 754 mmHg 45%
    09:00 -11°C° 0 mm 9 mps 754 mmHg 45%
    10:00 -10°C° 0 mm 9 mps 754 mmHg 42%
    11:00 -8°C° 0 mm 10 mps 754 mmHg 38%
    12:00 -7°C° 0 mm 10 mps 754 mmHg 35%
    13:00 -7°C° 0 mm 10 mps 754 mmHg 33%
    14:00 -5°C° 0 mm 10 mps 753 mmHg 31%
    15:00 -5°C° 0 mm 9 mps 753 mmHg 30%
    16:00 -6°C° 0 mm 9 mps 753 mmHg 31%
    17:00 -7°C° 0 mm 8 mps 753 mmHg 33%
    18:00 -7°C° 0 mm 8 mps 753 mmHg 35%
    19:00 -8°C° 0 mm 8 mps 753 mmHg 37%
    20:00 -8°C° 0 mm 8 mps 753 mmHg 38%
    21:00 -8°C° 0 mm 8 mps 753 mmHg 39%
    22:00 -8°C° 0 mm 8 mps 753 mmHg 42%
    23:00 -8°C° 0 mm 8 mps 753 mmHg 45%

    23 November, Saturday

    Time Temperature Precipitation Wind Pressure Humidity
    00:00 -10°C° 0 mm 8 mps 753 mmHg 47%
    01:00 -10°C° 0 mm 8 mps 753 mmHg 49%
    02:00 -10°C° 0 mm 8 mps 752 mmHg 51%
    03:00 -9°C° 0 mm 7 mps 752 mmHg 53%
    04:00 -9°C° 0 mm 7 mps 752 mmHg 55%
    05:00 -9°C° 0 mm 7 mps 752 mmHg 57%
    06:00 -10°C° 0 mm 8 mps 752 mmHg 59%
    07:00 -8°C° 0 mm 8 mps 752 mmHg 61%
    08:00 -8°C° 0 mm 8 mps 752 mmHg 62%
    09:00 -8°C° 0 mm 8 mps 752 mmHg 63%
    10:00 -7°C° 0 mm 8 mps 752 mmHg 62%
    11:00 -6°C° 0 mm 8 mps 752 mmHg 60%
    12:00 -5°C° 0 mm 9 mps 752 mmHg 58%
    13:00 -5°C° 0 mm 8 mps 752 mmHg 58%
    14:00 -4°C° 0 mm 8 mps 751 mmHg 57%
    15:00 -4°C° 0 mm 8 mps 751 mmHg 57%
    16:00 -4°C° 0 mm 7 mps 751 mmHg 58%
    17:00 -6°C° 0 mm 7 mps 751 mmHg 60%
    18:00 -5°C° 0 mm 6 mps 751 mmHg 62%
    19:00 -5°C° 0 mm 6 mps 751 mmHg 62%
    20:00 -6°C° 0 mm 6 mps 751 mmHg 63%
    21:00 -6°C° 0 mm 6 mps 751 mmHg 64%
    22:00 -6°C° 0 mm 6 mps 751 mmHg 66%
    23:00 -6°C° 0 mm 6 mps 751 mmHg 67%
    Show more